Content
SEND FEEDBACK

Daily
Averages
Monthly
Summary
United States of America

WILMINGTON, NORTH CAROLINA


Home > North America > United States > North Carolina
Elevation: 72 feet     Latitude: 34 16N     Longitude: 077 54W

WEATHER
 
SELECT A DAY
Number of Records: 208,938;   Date Range: 1/1/95 - 8/12/14
 
SHARE

PRINT THIS DATA

[ ← Previous Day ]
WEATHER ALMANAC - FEBRUARY 13, 2013
[ Next Day → ]
[ °C ]   °F
Weather ElementAverageHighLow
Temperature52.7 °F62.1 °F (4:53 pm)48 °F (2:53 am)
Dewpoint49.2 °F57.2 °F (4:08 pm)45 °F (1:53 am)
Humidity88.1 %96 % (9:53 am)77 % (7:53 pm)
Barometer29.77 in29.89 in (1:53 am)29.66 in (3:53 pm)
Wind Speed8.2 mph19.6 mph (7:53 pm)
Wind Gust29.9 mph (7:53 pm)
Weather ElementAverage
Visibility7.4 mi
Wind DirectionSSE (164.7 °)

Weather ElementTotal
Precipitation1.28 in
Heating Degree Days10 (Base 65)
Growing Degree Days5.1 (Base 50)
Averaged from 34 records on February 13, 2013
WEATHER CONDITIONS BREAKOUT
WIND DIRECTION BREAKOUT
WEATHER BY HOUR - FEBRUARY 13, 2013
[ °C ]   °F
Local TimeTemperatureDewpointHumidityBarometerVisibilityWind DirectionWind SpeedGust SpeedPrecipitationEventsConditions
1:53 AM48.9 °F45.0 °F86 %29.89 in7.0 miENE (70°)8.1 mph0.09 inRainRain
2:53 AM48.0 °F45.0 °F89 %29.87 in5.0 miENE (70°)5.8 mph0.14 inRainRain
3:22 AM48.2 °F46.4 °F93 %29.86 in7.0 miESE (110°)5.8 mph0.02 inRainLight Rain
3:53 AM48.0 °F46.0 °F93 %29.84 in10.0 miEast (80°)3.5 mph0.04 inRainLight Rain
4:27 AM48.2 °F46.4 °F93 %29.82 in1.8 miENE (70°)4.6 mph0.12 inRainHeavy Rain
4:36 AM48.2 °F46.4 °F93 %29.81 in3.0 miEast (100°)8.1 mph0.24 inRainRain
4:48 AM48.2 °F46.4 °F93 %29.78 in4.0 miESE (110°)9.2 mph0.28 inRainRain
4:53 AM48.9 °F46.9 °F93 %29.79 in5.0 miESE (120°)11.5 mph0.29 inRainLight Rain
5:01 AM48.2 °F46.4 °F93 %29.80 in5.0 miEast (90°)8.1 mph19.6 mph0.00 inRainLight Rain
5:09 AM50.0 °F46.4 °F87 %29.80 in7.0 miENE (60°)8.1 mph0.00 inRainLight Rain
5:53 AM50.0 °F48.0 °F93 %29.81 in10.0 miENE (60°)5.8 mph0.00 inOvercast
6:53 AM50.0 °F48.0 °F93 %29.81 in10.0 miENE (60°)5.8 mphOvercast
7:01 AM50.0 °F48.2 °F94 %29.79 in9.0 miENE (60°)6.9 mph0.00 inRainLight Rain
7:32 AM51.8 °F48.2 °F88 %29.78 in4.0 miEast (80°)4.6 mph0.02 inRainLight Rain
7:53 AM51.1 °F48.9 °F92 %29.78 in9.0 miENE (60°)6.9 mph0.03 inOvercast
8:27 AM51.8 °F48.2 °F88 %29.76 in2.0 miNE (50°)5.8 mphOvercast
8:53 AM51.1 °F48.9 °F92 %29.78 in3.0 miNorth (360°)6.9 mphOvercast
9:04 AM51.8 °F48.2 °F88 %29.77 in2.0 miNorth (10°)6.9 mphOvercast
9:53 AM50.0 °F48.9 °F96 %29.78 in3.0 miNorth (360°)5.8 mphOvercast
10:53 AM50.0 °F48.0 °F93 %29.77 in10.0 miNorth (350°)3.5 mphOvercast
11:53 AM53.1 °F50.0 °F89 %29.75 in10.0 miCalmOvercast
12:53 PM55.0 °F52.0 °F89 %29.71 in7.0 miWest (260°)3.5 mphOvercast
1:53 PM57.9 °F55.0 °F90 %29.70 in8.0 miWNW (290°)5.8 mphOvercast
2:53 PM59.0 °F55.9 °F90 %29.68 in9.0 miSW (230°)6.9 mphOvercast
3:53 PM61.0 °F57.0 °F87 %29.66 in10.0 miSW (220°)11.5 mphMostly Cloudy
4:08 PM60.8 °F57.2 °F88 %29.67 in10.0 miSW (220°)10.4 mphMostly Cloudy
4:53 PM62.1 °F55.9 °F80 %29.67 in10.0 miWSW (240°)12.7 mphPartly Cloudy
5:53 PM61.0 °F55.0 °F81 %29.71 in10.0 miWSW (240°)12.7 mphClear
6:53 PM59.0 °F52.0 °F78 %29.72 in10.0 miWSW (240°)13.8 mph0.00 inRainLight Rain
7:53 PM57.0 °F50.0 °F77 %29.73 in10.0 miWSW (250°)19.6 mph29.9 mph0.00 inRainLight Rain
8:53 PM55.0 °F48.0 °F77 %29.78 in10.0 miWest (260°)17.3 mph25.3 mph0.00 inRainLight Rain
9:53 PM54.0 °F46.9 °F77 %29.77 in10.0 miWest (280°)11.5 mph0.01 inMostly Cloudy
10:53 PM53.1 °F46.9 °F80 %29.80 in10.0 miWest (270°)12.7 mphClear
11:53 PM52.0 °F46.9 °F83 %29.83 in10.0 miWest (270°)9.2 mphOvercast
Hourly data recorded from KILM, located miles away from Wilmington, North Carolina







STORIES FROM OUR PARTNERS